Location: Augirein
(42.9320°N, 0.9181°E)
Time: 20:46:01
(UTC+00:00)

N. Korean satellite - Visible Passes

Search period start: 21 September 2021 00:00
Search period end: 01 October 2021 00:00
Orbit: 448 x 498 km, 97.3° (Epoch: 20 September)

Date Brightness Start Highest point End Pass type
(mag) Time Alt. Az. Time Alt. Az. Time Alt. Az.
22 Sep 7.8 04:57:01 10° NNE 05:00:26 46° E 05:03:52 10° S visible
23 Sep 9.4 04:29:49 10° NE 04:32:34 21° E 04:35:19 10° SE visible
25 Sep 7.1 05:06:51 10° NNE 05:10:23 64° ESE 05:13:57 10° S visible
26 Sep 8.9 04:39:25 10° NE 04:42:32 27° E 04:45:39 10° SSE visible
27 Sep 9.9 04:12:50 10° ENE 04:14:35 13° E 04:16:20 10° ESE visible
28 Sep 6.6 05:16:40 10° NNE 05:20:15 88° ESE 05:23:53 10° SSW visible
29 Sep 8.3 04:49:05 10° NNE 04:52:26 37° E 04:55:49 10° SSE visible
30 Sep 9.7 04:22:03 10° NE 04:24:30 17° E 04:26:58 10° SE visible
